TimeCDT,TemperatureF,Dew PointF,Humidity,Sea Level PressureIn,VisibilityMPH,Wind Direction,Wind SpeedMPH,Gust SpeedMPH,PrecipitationIn,Events,Conditions,WindDirDegrees,DateUTC
12:15 AM,79.7,73.9,82,30.00,10.0,Calm,Calm,-,N/A,,Overcast,0,2013-08-01 05:15:00
12:35 AM,79.7,72.9,80,30.00,10.0,Calm,Calm,-,N/A,,Overcast,0,2013-08-01 05:35:00
12:55 AM,79.5,73.4,81,30.00,10.0,Calm,Calm,-,N/A,,Mostly Cloudy,0,2013-08-01 05:55:00
1:15 AM,79.0,74.3,85,29.99,10.0,Calm,Calm,-,N/A,,Mostly Cloudy,0,2013-08-01 06:15:00
1:35 AM,79.7,74.1,83,29.99,10.0,Calm,Calm,-,N/A,,Overcast,0,2013-08-01 06:35:00
1:55 AM,80.2,73.9,81,29.98,10.0,Calm,Calm,-,N/A,,Overcast,0,2013-08-01 06:55:00
2:15 AM,79.3,75.4,88,29.98,7.0,Calm,Calm,-,N/A,Rain,Light Rain,0,2013-08-01 07:15:00
2:35 AM,78.8,75.0,88,29.97,10.0,Calm,Calm,-,N/A,,Overcast,0,2013-08-01 07:35:00
2:55 AM,78.8,75.4,89,29.97,7.0,Calm,Calm,-,N/A,,Mostly Cloudy,0,2013-08-01 07:55:00
3:15 AM,78.3,75.4,91,29.97,7.0,Calm,Calm,-,N/A,,Scattered Clouds,0,2013-08-01 08:15:00
3:35 AM,77.7,74.7,90,29.97,7.0,Calm,Calm,-,N/A,,Scattered Clouds,0,2013-08-01 08:35:00
3:55 AM,77.9,74.5,89,29.97,7.0,Calm,Calm,-,N/A,,Mostly Cloudy,0,2013-08-01 08:55:00
4:15 AM,77.9,74.7,90,29.97,7.0,Calm,Calm,-,0.01,,Mostly Cloudy,0,2013-08-01 09:15:00
4:35 AM,77.4,74.5,91,29.97,7.0,Calm,Calm,-,0.01,,Mostly Cloudy,0,2013-08-01 09:35:00
4:55 AM,77.0,74.3,91,29.98,7.0,Calm,Calm,-,0.01,,Scattered Clouds,0,2013-08-01 09:55:00
5:15 AM,76.8,73.9,91,29.98,5.0,Calm,Calm,-,N/A,,Mostly Cloudy,0,2013-08-01 10:15:00
5:35 AM,77.0,74.3,91,29.99,7.0,Calm,Calm,-,N/A,,Overcast,0,2013-08-01 10:35:00
5:55 AM,77.2,74.3,91,29.99,7.0,Calm,Calm,-,N/A,,Overcast,0,2013-08-01 10:55:00
6:15 AM,77.0,74.1,91,29.99,7.0,Calm,Calm,-,N/A,,Scattered Clouds,0,2013-08-01 11:15:00
6:35 AM,77.0,74.3,91,30.00,5.0,Calm,Calm,-,N/A,,Mostly Cloudy,0,2013-08-01 11:35:00
6:55 AM,77.9,74.5,89,30.01,5.0,Calm,Calm,-,N/A,,Overcast,0,2013-08-01 11:55:00
7:15 AM,79.0,74.5,86,30.01,7.0,Calm,Calm,-,N/A,,Scattered Clouds,0,2013-08-01 12:15:00
7:35 AM,80.1,74.5,83,30.01,10.0,Calm,Calm,-,N/A,,Clear,0,2013-08-01 12:35:00
7:55 AM,81.5,74.7,80,30.01,10.0,Calm,Calm,-,N/A,,Clear,0,2013-08-01 12:55:00
8:15 AM,82.8,74.3,75,30.02,10.0,Calm,Calm,-,N/A,,Clear,0,2013-08-01 13:15:00
8:35 AM,84.2,74.5,72,30.02,10.0,Calm,Calm,-,N/A,,Clear,0,2013-08-01 13:35:00
8:55 AM,85.5,73.8,68,30.02,10.0,Calm,Calm,-,N/A,,Clear,0,2013-08-01 13:55:00
9:15 AM,86.2,74.5,68,30.02,10.0,Calm,Calm,-,N/A,,Clear,0,2013-08-01 14:15:00
9:35 AM,87.3,73.8,64,30.02,10.0,Calm,Calm,-,N/A,,Clear,0,2013-08-01 14:35:00
9:55 AM,88.2,73.2,61,30.01,10.0,Calm,Calm,-,N/A,,Clear,0,2013-08-01 14:55:00
10:15 AM,89.1,73.4,60,30.02,10.0,Calm,Calm,-,N/A,,Clear,0,2013-08-01 15:15:00
10:35 AM,90.0,73.6,58,30.02,10.0,Calm,Calm,-,N/A,,Clear,0,2013-08-01 15:35:00
10:55 AM,90.9,74.1,58,30.02,10.0,Calm,Calm,-,N/A,,Clear,0,2013-08-01 15:55:00
11:15 AM,92.1,74.1,56,30.02,10.0,Calm,Calm,-,N/A,,Clear,0,2013-08-01 16:15:00
11:35 AM,93.0,74.1,54,30.02,10.0,Calm,Calm,-,N/A,,Clear,0,2013-08-01 16:35:00
11:55 AM,93.2,73.9,53,30.02,10.0,Calm,Calm,-,N/A,,Clear,0,2013-08-01 16:55:00
12:15 PM,94.5,75.7,54,30.02,10.0,Calm,Calm,-,N/A,,Scattered Clouds,0,2013-08-01 17:15:00
12:35 PM,92.7,75.7,58,30.01,10.0,Calm,Calm,-,N/A,,Mostly Cloudy,0,2013-08-01 17:35:00
12:55 PM,91.4,75.9,60,30.01,10.0,Calm,Calm,-,N/A,,Overcast,0,2013-08-01 17:55:00
1:15 PM,94.1,76.8,57,30.01,10.0,Calm,Calm,-,N/A,,Mostly Cloudy,0,2013-08-01 18:15:00
1:35 PM,95.2,76.5,55,30.00,10.0,Calm,Calm,-,N/A,,Mostly Cloudy,0,2013-08-01 18:35:00
1:55 PM,96.4,76.1,52,29.99,10.0,Calm,Calm,-,N/A,,Scattered Clouds,0,2013-08-01 18:55:00
2:15 PM,94.6,75.9,54,29.99,10.0,Calm,Calm,-,N/A,,Scattered Clouds,0,2013-08-01 19:15:00
2:35 PM,96.4,74.8,50,29.99,10.0,ENE,3.5,-,N/A,,Scattered Clouds,70,2013-08-01 19:35:00
2:55 PM,95.4,73.9,50,29.99,10.0,Calm,Calm,-,N/A,,Scattered Clouds,0,2013-08-01 19:55:00
3:15 PM,97.5,74.7,48,29.98,10.0,Calm,Calm,-,N/A,,Scattered Clouds,0,2013-08-01 20:15:00
3:35 PM,97.0,74.1,48,29.98,10.0,Calm,Calm,-,N/A,,Scattered Clouds,0,2013-08-01 20:35:00
3:55 PM,94.8,73.0,49,29.97,10.0,Calm,Calm,-,N/A,,Clear,0,2013-08-01 20:55:00
4:15 PM,95.9,73.9,49,29.97,10.0,Calm,Calm,-,N/A,,Scattered Clouds,0,2013-08-01 21:15:00
4:35 PM,95.2,72.7,48,29.97,10.0,Calm,Calm,-,N/A,,Scattered Clouds,0,2013-08-01 21:35:00
4:55 PM,96.6,73.9,48,29.96,10.0,Calm,Calm,-,N/A,,Clear,0,2013-08-01 21:55:00
5:15 PM,95.7,72.3,47,29.96,10.0,Calm,Calm,-,N/A,,Clear,0,2013-08-01 22:15:00
5:35 PM,94.6,72.7,49,29.96,10.0,Calm,Calm,-,N/A,,Clear,0,2013-08-01 22:35:00
5:55 PM,95.0,72.9,49,29.95,10.0,Calm,Calm,-,N/A,,Clear,0,2013-08-01 22:55:00
6:15 PM,94.1,73.8,52,29.94,10.0,Calm,Calm,-,N/A,,Clear,0,2013-08-01 23:15:00
6:35 PM,93.2,72.9,51,29.94,10.0,Calm,Calm,-,N/A,,Clear,0,2013-08-01 23:35:00
6:55 PM,92.7,73.4,53,29.94,10.0,Calm,Calm,-,N/A,,Clear,0,2013-08-01 23:55:00
7:15 PM,91.0,74.7,59,29.94,10.0,Calm,Calm,-,N/A,,Clear,0,2013-08-02 00:15:00
7:35 PM,88.9,74.7,63,29.94,10.0,Calm,Calm,-,N/A,,Clear,0,2013-08-02 00:35:00
7:55 PM,86.0,76.1,72,29.95,10.0,Calm,Calm,-,N/A,,Clear,0,2013-08-02 00:55:00
8:15 PM,83.5,76.5,79,29.96,10.0,Calm,Calm,-,N/A,,Clear,0,2013-08-02 01:15:00
8:35 PM,82.4,75.7,80,29.97,10.0,Calm,Calm,-,N/A,,Clear,0,2013-08-02 01:35:00
8:55 PM,81.5,75.6,82,29.97,10.0,Calm,Calm,-,N/A,,Clear,0,2013-08-02 01:55:00
9:15 PM,80.2,75.2,85,29.98,10.0,Calm,Calm,-,N/A,,Clear,0,2013-08-02 02:15:00
9:35 PM,80.1,75.2,85,29.98,10.0,Calm,Calm,-,N/A,,Clear,0,2013-08-02 02:35:00
9:55 PM,79.7,74.7,84,29.99,10.0,Calm,Calm,-,N/A,,Clear,0,2013-08-02 02:55:00
10:15 PM,79.5,74.5,84,29.99,10.0,Calm,Calm,-,N/A,,Clear,0,2013-08-02 03:15:00
10:35 PM,79.2,74.3,85,30.00,10.0,Calm,Calm,-,N/A,,Clear,0,2013-08-02 03:35:00
10:55 PM,78.4,74.3,87,30.00,10.0,Calm,Calm,-,N/A,,Clear,0,2013-08-02 03:55:00
11:15 PM,78.4,74.3,87,30.00,10.0,Calm,Calm,-,N/A,,Clear,0,2013-08-02 04:15:00
11:35 PM,77.9,73.9,88,29.99,10.0,Calm,Calm,-,N/A,,Clear,0,2013-08-02 04:35:00
11:55 PM,77.2,73.9,90,29.99,7.0,Calm,Calm,-,N/A,,Clear,0,2013-08-02 04:55:00